Location: Risskov
(56.1972°N, 10.2480°E)
Time: 12:22:38
(UTC+00:00)

USA 267 - Pass Details

Date: 05 July 2020
Orbit: 1102 x 1106 km, 123.0° (Epoch: 03 August)

Event Time Altitude Azimuth Distance (km) Brightness Sun altitude
Exits shadow 21:33:58 - 140° (SE) 3,126 5.0 -7.8°
Reaches altitude 10° 21:34:26 10° 141° (SE) 2,956 4.9 -7.8°
Maximum altitude 21:40:44 49° 215° (SW) 1,389 3.6 -8.2°
Drops below altitude 10° 21:47:04 10° 290° (WNW) 2,969 6.2 -8.5°
Sets 21:49:40 0° 296° (WNW) 3,930 7.0 -8.6°
